GALAXY 25 (G-25)

Last updated on Thu Nov 21 2024 00:02:40 GMT+0000 (Coordinated Universal Time)

1 24812U 97026A 24325.23336771 -.00000043 00000+0 00000+0 0 9995 2 24812 5.9378 74.3738 0002254 51.2896 215.1757 0.99092204100539
UTC large
Height (km)
Speed (km/s)
/
Latitude / Longitude
Inclination (degrees)
Orbital Period (minutes)
Azimuth
Elevation
Range (km)
Doppler Factor

Next 0 passes for location: London (51.5072 / 0.1276)

Sorry there are no passes over London.